World > North America > United States > California > Rancho Santa Fe   RSF Association dot org

Rancho Santa Fe, CA Hourly Weather Updates

Feedback E-mail the Weather

Quick Clicks

Rancho Santa Fe, CA Weather Maps

°F °C°F °C
Rancho Santa Fe Weather Map
UTC Time: 4/15/2024, 09:09
Your Time:

Rancho Santa Fe, CA Regional Weather

Expires:202404150900;;768974
ASUS46 KSGX 150810
RWRSGX

SAN DIEGO HOURLY WEATHER ROUNDUP
NATIONAL WEATHER SERVICE SAN DIEGO CA
100 AM PDT MON APR 15 2024

NOTE: "FAIR" INDICATES FEW OR NO CLOUDS BELOW 12,000 FEET WITH NO 
SIGNIFICANT WEATHER AND/OR OBSTRUCTIONS TO VISIBILITY.


CAZ042-043-060-061-PZZ750-775-150900-

GREATER SAN DIEGO AREA
  
CITY           SKY/WX    TMP DP  RH WIND       PRES   REMARKS
SAN DIEGO AP   MOCLDY    57  51  80 N6        30.10F                  
BROWN FIELD    FAIR      52  49  89 W5        30.08F                  
MIRAMAR MCAS   CLOUDY    50  50 100 W3        30.08S                  
MONTGOMERY FLD FAIR      53  49  86 W3        30.09S                  
GILLESPIE FLD  MOCLDY    54  50  87 W9        30.08S                  
LEMON GROVE      N/A     52  50  92 SW2       30.07S                  

$$

NORTH SAN DIEGO COUNTY
  
CITY           SKY/WX    TMP DP  RH WIND       PRES   REMARKS
CAMP PENDLETON CLOUDY    54  50  86 NE3       30.09S                  
OCEANSIDE AP   CLOUDY    54  52  93 CALM      30.08S                  
OCEANSIDE HBR    N/A     55  50  84 N2        30.13F                  
CARLSBAD       CLOUDY    54  50  86 CALM      30.07F                  
ENCINITAS        N/A     53  52  96 CALM        N/A                   
LA JOLLA SCRIP   N/A     55  46  71 CALM      30.08F                  
FALLBROOK      CLOUDY    50  50 100 CALM      30.09S                  
ESCONDIDO        N/A     53  50  89 W2        30.08F                  
SAN MARCOS       N/A     53  50  90 CALM      30.06F                  
RANCHO BERNARD   N/A     52  49  90 CALM      30.07F                  
POWAY            N/A     52  50  92 N1        30.11S                  

$$

EAST SAN DIEGO COUNTY
  
CITY           SKY/WX    TMP DP  RH WIND       PRES   REMARKS
RAMONA         CLOUDY    50  47  89 NW3       30.07S                  
SANTEE           N/A     53  51  92 CALM      30.05F                  
LA MESA          N/A     52  49  89 W3        30.03F                  
EL CAJON         N/A     54  51  90 CALM      29.96F                  
ALPINE           N/A     49  47  93 CALM      30.27F                  
DESCANSO N       N/A     42  41  96 SW3       30.11S                  

$$

ORANGE COUNTY AND THE LOS ANGELES BASIN
  
CITY           SKY/WX    TMP DP  RH WIND       PRES   REMARKS
JOHN WAYNE AP  FAIR      55  49  80 CALM      30.08S                  
LAGUNA BEACH     N/A     49  47  94 CALM      30.07F                  
LAKE FOREST FR   N/A     49  46  90 CALM      29.96F                  
SANTA ANA        N/A     53  50  89 CALM      30.07S                  
HUNTINGTON BCH   N/A     54  51  90 CALM      30.08R                  
LOS ALAMITOS   CLOUDY    52  49  90 CALM      30.05S                  
FULLERTON      FAIR      50  50 100 CALM      30.07S                  
LONG BEACH     FAIR      53  48  83 CALM      30.09R                  
L.A. AP        FAIR      52  48  86 W7        30.08F                  
L.A. DOWNTOWN  FAIR      51  48  89 CALM      30.09S                  

$$

THE INLAND EMPIRE
  
CITY           SKY/WX    TMP DP  RH WIND       PRES   REMARKS
CORONA         CLOUDY    50  47  89 S3        30.09S                  
UPLAND AP      PTSUNNY   48  48 100 W8        30.06S                  
CHINO          CLOUDY    50  31  48 CALM      30.09R                  
ONTARIO        MOCLDY    50  47  89 W3        30.07S                  
SAN BERNARDINO CLOUDY    50  45  81 SW3       30.08R                  
RIVERSIDE AP   CLOUDY    50  48  93 W5        30.07F                  
MORENO VALLEY    N/A     47  47 100 CALM      28.30F                  
MARCH ARB      MOCLDY    47  46  95 CALM      30.06S                  
HORSETHIEF CYN   N/A     44  41  90 CALM      30.07F                  
PERRIS           N/A     48  46  93 CALM      30.10S                  
LAKE ELSINORE    N/A     46  42  88 CALM      30.01F                  
HEMET AP       PTSUNNY   44  44  97 SW5       30.07S                  
FRENCH VALLEY  FAIR      46  46 100 CALM      30.08S                  
TEMECULA         N/A     51  48  92 SW5       30.07S                  

$$

SAN BERNARDINO AND RIVERSIDE COUNTY MOUNTAINS
  
CITY           SKY/WX    TMP DP  RH WIND       PRES   REMARKS
BIG BEAR AP    FAIR      28  27  93 CALM      30.01F                  
BIG BEAR LAKE    N/A     27  24  89 CALM      30.09S                  
WRIGHTWOOD       N/A     28  24  85 CALM      29.94R                  
ANGELUS OAKS     N/A     30  28  91 CALM      30.05F                  
IDYLLWILD        N/A     34  33  94 CALM      29.98F                  

$$

SOUTHERN DESERT INCLUDING THE COACHELLA VALLEY
  
CITY           SKY/WX    TMP DP  RH WIND       PRES   REMARKS
PALM SPRINGS   FAIR      58  40  51 SW3       29.96S                  
INDIO            N/A     61  40  46 CALM      29.95S                  
THERMAL        FAIR      60  40  47 NW15      29.95S                  
BORREGO AP     FAIR      57  36  44 NW8G16    29.98F                  
OCOTILLO WELLS   N/A     59  39  46 W12       29.93R                  
CANEBRAKE        N/A     55  37  51 SW3       29.95R                  
BLYTHE           N/A    N/A N/A N/A MISG      29.93S                  
IMPERIAL AP    FAIR      58  42  55 W15       29.98R                  
EL CENTRO NAS  LGT RAIN  60  41  49 W23       29.99R                  
YUMA AZ        FAIR      57  40  52 W7        29.96F                  

$$

UPPER DESERT
  
CITY           SKY/WX    TMP DP  RH WIND       PRES   REMARKS
VICTORVILLE AP FAIR      43  34  70 SW12      30.06S                  
HESPERIA         N/A     42  38  87 SW1       29.91S                  
APPLE VALLEY     N/A     42  37  81 CALM      30.09S                  
PALMDALE       FAIR      44  35  70 SW14      30.05S                  
LANCASTER      FAIR      44  36  73 W13       30.04S                  
EDWARDS AFB    FAIR      43  37  79 SW13      29.99F                  
GRAY BUTTE AP  FAIR      43  33  66 W15G21    29.98S                  
DAGGETT        FAIR      49  35  58 W20G28    29.99S                  
29 PALMS N     FAIR      51  36  56 NW9       30.04S                  
29 PALMS JTNP    N/A     51  37  57 CALM      29.91S                  
NEEDLES        FAIR      61  36  39 NE5       29.91F                  

$$

REGIONAL REPORTS
  
CITY           SKY/WX    TMP DP  RH WIND       PRES   REMARKS
SANTA BARBARA  FAIR      53  47  79 VRB5      30.08S                  
SANDBERG       MOCLDY    37  34  89 NW29G41   30.03F WCI  25          
LAS VEGAS NV   FAIR      52  34  50 SW9       29.89S                  
PHOENIX AZ     FAIR      68  23  18 NW9       29.89S                  
TIJUANA        MOCLDY    52  50  93 CALM      30.11                   

$$

OFFSHORE ISLANDS
  
CITY           SKY/WX    TMP DP  RH WIND       PRES   REMARKS
CATALINA ARPT  CLOUDY    48  46  93 W8        30.08S FOG              
SAN NICOLAS IS FAIR      51  48  89 NW17      30.09S                  

$$

MARINE AND OFFSHORE BUOY REPORTS
  
STATION/POSITION SKY/WX   TEMP    WIND        PRES    VSBY  SWELL
                          AIR SEA DIR/SP/G                  HT/PER/DIR
                          (F)     (DEG/KT/KT) (MB)    (MI)  (FT/S/D)
TANNER BANKS               57 58  310/ 16/ 19 1019.5F
S CLEMENTE BASIN           58 60  290/ 12/ 16 1018.1R         5/280/12
SAN NICOLAS IS.            56 57                N/A           5/310/12
SO. S. ROSA ISLA           55 56  330/ 21/ 27 1018.6F         7/300/11
W. S. BARBARA CH           54 54  320/ 21/ 27 1019.1S         7/310/11
M. S. BARBARA CH           54 55  300/ 16/ 19 1017.3S         5/270/11
S. MONICA BASIN            55 56  340/  6/  8 1018.9F         5/260/ 8
S PEDRO CHANNEL               58                N/A           2/250/12
OCEANSIDE OFFSHR              59                N/A           2/250/13
TORREY PINES OTR              60                N/A           2/250/11
SAN DIEGO BAY                 63              1018.9S
IMPERIAL BEACH                60                N/A           3/270/12
POINT LOMA SOUTH                                N/A           3/290/13

$$

  

SKY/WX - Weather  TMP - Temperature  DP - Dew Point  RH - Humidity
WIND - Wind Direction/Speed PRES - Barometric Pressure VSB - Visibility
WCI - Wind Chill Index E13G22 Wind - East Wind 13 mph/Gusts of 22 mph

Trending Headlines

Trending Entertainment Headlines

Rancho Santa Fe Radar Loop

Use the map search tool if you want to place a location marker on the radar map...

Rancho Santa Fe Quick Facts

National Two Day Weather Forecast


E-mail the Rancho Santa Fe Weather Forecast

Voice your opinion or tell us about page issues...